Weather History for Fairfield, CA

Change the Weather History Date:

Wednesday, October 2, 2013

  Actual Average Record
Temperature  
Mean Temperature 65 °F -  
Max Temperature 78 °F 79 °F 99 °F (2012)
Min Temperature 52 °F 53 °F 48 °F (2007)
Growing Degree Days 15 (Base 50)    
Moisture  
Dew Point 47 °F    
Average Humidity 57    
Maximum Humidity 92    
Minimum Humidity 28    
Precipitation  
Precipitation 0.00 in - - ()
Sea Level Pressure  
Sea Level Pressure 29.95 in    
Wind  
Wind Speed 9 mph (SW)    
Max Wind Speed 20 mph    
Max Gust Speed 22 mph    
Visibility 10 miles    
Events      
Averages and records for this station are not official NWS values.
T = Trace of Precipitation, MM = Missing Value Source: NWS Daily Summary

Daily Weather History Graph

Daily Weather History Graph

Search for Another Location

Airport:

Trip Planner

Search our weather history database for the weather conditions in past years. The results will help you decide how hot, cold, wet, or windy it might be!

Date:

Astronomy

Oct. 02, 2013 Rise Set
Actual Time 7:04 AM PDT 6:48 PM PDT
Civil Twilight 6:38 AM PDT 7:14 PM PDT
Nautical Twilight 6:07 AM PDT 7:45 PM PDT
Astronomical Twilight 5:36 AM PDT 8:16 PM PDT
Moon 4:44 AM PDT (10/2) 5:26 PM PDT (10/2)
Length of Visible Light 12h 36m
Length of Day
11h 43m
Waning Crescent, 6% of the Moon is Illuminated
Oct 2
Waning Crescent
Oct 4
New
Oct 11
First Quarter
Oct 18
Full
Oct 26
Last Quarter

Hourly Weather History & Observations

Time (PDT) Temp. Dew Point Humidity Pressure Visibility Wind Dir Wind Speed Gust Speed Precip Events Conditions
12:56 AM 57.2 °F 50.0 °F 77% 29.91 in 10.0 mi SSW 6.9 mph - N/A   Clear
1:58 AM 55.8 °F 50.0 °F 81% 29.93 in 10.0 mi SSW 8.1 mph - N/A   Clear
2:58 AM 54.9 °F 50.9 °F 86% 29.93 in 10.0 mi South 3.5 mph - N/A   Clear
3:58 AM 53.2 °F 49.3 °F 86% 29.93 in 10.0 mi SW 3.5 mph - N/A   Clear
4:58 AM 53.4 °F 51.3 °F 92% 29.93 in 10.0 mi WSW 9.2 mph - N/A   Clear
5:58 AM 52.0 °F 48.9 °F 89% 29.94 in 10.0 mi SW 6.9 mph - N/A   Scattered Clouds
6:58 AM 53.6 °F 49.3 °F 85% 29.95 in 10.0 mi SSW 9.2 mph - N/A   Clear
7:58 AM 54.9 °F 50.0 °F 84% 29.97 in 10.0 mi SW 8.1 mph - N/A   Clear
8:58 AM 59.5 °F 50.5 °F 72% 29.99 in 10.0 mi SW 10.4 mph - N/A   Clear
9:58 AM 65.8 °F 49.3 °F 55% 30.00 in 10.0 mi SW 10.4 mph - N/A   Clear
10:58 AM 71.4 °F 44.8 °F 38% 30.00 in 10.0 mi Variable 2.3 mph - N/A   Clear
11:58 AM 74.3 °F 44.4 °F 34% 29.99 in 10.0 mi SW 4.6 mph - N/A   Clear
12:58 PM 75.9 °F 45.3 °F 34% 29.95 in 10.0 mi West 5.8 mph - N/A   Clear
1:58 PM 77.9 °F 44.8 °F 31% 29.95 in 10.0 mi WSW 12.7 mph - N/A   Clear
2:58 PM 77.9 °F 42.3 °F 28% 29.93 in 10.0 mi WSW 13.8 mph 21.9 mph N/A   Clear
3:58 PM 78.4 °F 45.7 °F 31% 29.92 in 10.0 mi WSW 18.4 mph - N/A   Clear
4:58 PM 76.5 °F 46.4 °F 34% 29.91 in 10.0 mi SW 19.6 mph - N/A   Clear
5:58 PM 72.7 °F 45.9 °F 38% 29.92 in 10.0 mi WSW 18.4 mph - N/A   Clear
6:58 PM 67.6 °F 46.2 °F 46% 29.91 in 10.0 mi WSW 18.4 mph - N/A   Clear
7:58 PM 64.8 °F 45.5 °F 50% 29.92 in 10.0 mi WSW 17.3 mph - N/A   Clear
8:58 PM 63.0 °F 44.4 °F 51% 29.94 in 10.0 mi WSW 17.3 mph - N/A   Clear
9:58 PM 60.3 °F 44.2 °F 55% 29.95 in 10.0 mi WSW 11.5 mph - N/A   Clear
10:58 PM 61.3 °F 41.5 °F 48% 29.97 in 10.0 mi West 2.3 mph - N/A   Clear
11:58 PM 59.7 °F 35.4 °F 40% 29.99 in 10.0 mi NW 3.5 mph - N/A   Clear